DW6022 Weather Reports


Display with metric or nautical units.
time (UTC)temp
F
wind
direction
speed
MPH
gust
MPH
rain 1hr
in
rain 24hr
in
rain mn
in
humidity
%
barometer
mb
20260507203147 59 36 3.0 4.0 0.00 0.16 0.03 70 1014.4
20260507202656 59 33 1.0 4.0 0.00 0.16 0.03 70 1014.3
20260507202150 59 32 2.0 4.0 0.00 0.16 0.03 70 1014.2
20260507201706 59 32 3.0 4.0 0.00 0.16 0.03 69 1014.2
20260507201226 59 30 2.0 4.0 0.00 0.16 0.03 69 1014.1
20260507200654 60 29 2.0 4.0 0.00 0.16 0.03 69 1014.0
20260507200203 60 28 2.0 4.0 0.00 0.16 0.03 68 1014.0
20260507195703 60 26 3.0 4.0 0.00 0.47 0.03 67 1013.9
20260507195201 60 25 2.0 4.0 0.00 0.47 0.03 67 1013.8
20260507194712 60 24 2.0 4.0 0.00 0.47 0.03 67 1013.8
20260507194149 60 22 2.0 3.0 0.00 0.47 0.03 67 1013.7
20260507193730 60 22 2.0 3.0 0.00 0.47 0.03 68 1013.7
20260507193207 59 21 2.0 3.0 0.00 0.47 0.03 67 1013.5
20260507192657 59 20 2.0 3.0 0.00 0.47 0.03 67 1013.5
20260507192151 59 19 2.0 3.0 0.00 0.47 0.03 67 1013.3
20260507191705 59 19 3.0 3.0 0.00 0.47 0.03 67 1013.3
20260507191208 59 19 1.0 4.0 0.00 0.47 0.03 66 1013.3
20260507190705 60 19 2.0 4.0 0.00 0.47 0.03 65 1013.2
20260507190206 60 19 2.0 4.0 0.00 0.47 0.03 65 1013.2
20260507185655 60 17 3.0 5.0 0.00 0.59 0.03 65 1013.1
20260507185215 60 15 2.0 5.0 0.00 0.59 0.03 65 1013.0
20260507184655 60 19 2.0 5.0 0.00 0.59 0.03 65 1013.0
20260507184155 60 21 3.0 4.0 0.00 0.59 0.03 65 1012.9
20260507183652 60 19 2.0 4.0 0.00 0.59 0.03 65 1012.9
20260507183155 60 18 3.0 5.0 0.00 0.59 0.03 65 1012.9
20260507182659 61 13 3.0 5.0 0.00 0.59 0.03 64 1012.8
20260507182159 61 20 3.0 5.0 0.00 0.59 0.03 64 1012.7
20260507181701 61 17 3.0 5.0 0.00 0.59 0.03 64 1012.7
20260507181153 61 21 2.0 4.0 0.00 0.59 0.03 64 1012.7
20260507180657 61 19 3.0 4.0 0.00 0.59 0.03 64 1012.6
20260507180201 61 17 3.0 4.0 0.00 0.59 0.03 63 1012.5
20260507175702 62 5 3.0 4.0 0.00 0.59 0.03 63 1012.5
20260507175200 62 355 3.0 4.0 0.00 0.59 0.03 62 1012.4
20260507174702 63 336 3.0 4.0 0.00 0.59 0.03 61 1012.4
20260507174227 64 308 3.0 4.0 0.00 0.59 0.03 61 1012.4
20260507173702 64 297 3.0 4.0 0.00 0.59 0.03 59 1012.4
20260507173152 65 286 3.0 4.0 0.00 0.59 0.03 57 1012.4
20260507172714 65 284 2.0 3.0 0.00 0.59 0.03 56 1012.3
20260507172156 66 282 1.0 3.0 0.00 0.59 0.03 56 1012.2
20260507171658 66 282 2.0 3.0 0.00 0.59 0.03 55 1012.3
20260507171200 67 282 2.0 3.0 0.00 0.59 0.03 54 1012.3
20260507170651 67 282 2.0 3.0 0.00 0.59 0.03 53 1012.3
20260507170158 67 282 1.0 2.0 0.00 0.59 0.03 54 1012.2
20260507165725 67 282 1.0 2.0 0.00 0.63 0.03 54 1012.1
20260507165205 68 282 1.0 3.0 0.00 0.63 0.03 51 1012.1
20260507164701 68 281 1.0 4.0 0.00 0.63 0.03 48 1012.1
20260507164159 68 281 2.0 4.0 0.00 0.63 0.03 48 1012.1
20260507163723 68 281 1.0 5.0 0.00 0.63 0.03 48 1012.1
20260507163228 68 281 2.0 5.0 0.00 0.63 0.03 49 1012.0
20260507162706 68 291 3.0 5.0 0.00 0.63 0.03 49 1012.0
20260507162204 68 271 2.0 5.0 0.00 0.63 0.03 48 1012.1
20260507161722 67 279 1.0 5.0 0.00 0.63 0.03 48 1012.0
20260507161158 68 309 3.0 5.0 0.00 0.63 0.03 50 1012.0
20260507160703 67 309 3.0 5.0 0.00 0.63 0.03 49 1012.0
20260507160213 67 242 2.0 5.0 0.00 0.63 0.03 50 1012.1
20260507155700 67 276 2.0 5.0 0.00 3.86 0.03 51 1012.1
20260507155205 66 284 3.0 5.0 0.00 3.86 0.03 51 1012.2
20260507154700 66 290 3.0 6.0 0.00 3.86 0.03 51 1012.1
20260507154158 66 290 3.0 6.0 0.00 3.86 0.03 52 1012.1
20260507153656 66 273 3.0 6.0 0.00 3.86 0.03 52 1012.1
20260507153155 66 271 3.0 6.0 0.00 3.86 0.03 52 1012.1
20260507152653 66 265 4.0 6.0 0.00 3.86 0.03 52 1012.0
20260507152150 66 266 3.0 7.0 0.00 3.86 0.03 52 1012.0
20260507151708 66 293 4.0 7.0 0.00 3.86 0.03 52 1012.1
20260507151206 66 292 4.0 8.0 0.00 3.86 0.03 52 1012.1
20260507150709 66 263 5.0 8.0 0.00 3.86 0.03 52 1012.1
20260507150157 67 294 2.0 7.0 0.00 3.86 0.03 52 1012.0
20260507145653 67 270 3.0 6.0 0.00 6.34 0.03 52 1012.1
20260507145215 67 302 3.0 8.0 0.00 6.34 0.03 51 1012.1
20260507144659 67 265 5.0 10.0 0.00 6.34 0.03 51 1012.1
20260507144156 67 198 4.0 10.0 0.00 6.34 0.03 50 1012.0
20260507143658 67 261 5.0 7.0 0.00 6.34 0.03 51 1012.1
20260507143214 67 14 4.0 7.0 0.00 6.34 0.03 50 1012.1
20260507142652 67 241 4.0 7.0 0.00 6.34 0.03 49 1012.1
20260507142149 67 343 4.0 7.0 0.00 6.34 0.03 49 1012.1
20260507141707 67 207 3.0 9.0 0.00 6.34 0.03 52 1012.1
20260507141203 66 213 5.0 9.0 0.00 6.34 0.03 51 1012.2
20260507140703 67 273 3.0 10.0 0.00 6.34 0.03 52 1012.2
20260507140150 66 285 3.0 7.0 0.00 6.34 0.03 52 1012.2
20260507135701 67 284 4.0 7.0 0.00 6.34 0.03 49 1012.3
20260507135159 67 306 5.0 9.0 0.00 6.34 0.03 51 1012.3
20260507134657 66 252 5.0 11.0 0.00 6.34 0.03 55 1012.3
20260507134149 66 254 8.0 11.0 0.00 6.34 0.03 52 1012.4
20260507133649 66 317 4.0 10.0 0.00 6.34 0.03 52 1012.5
20260507133158 66 323 4.0 10.0 0.00 6.34 0.03 54 1012.5
20260507132652 66 319 5.0 8.0 0.00 6.34 0.03 54 1012.5
20260507132206 66 248 6.0 8.0 0.00 6.34 0.03 55 1012.6
20260507131652 66 275 4.0 8.0 0.00 6.34 0.03 54 1012.6
20260507131155 66 276 4.0 10.0 0.00 6.34 0.03 55 1012.6
20260507130716 66 273 6.0 10.0 0.00 6.34 0.03 54 1012.7
20260507130221 66 253 2.0 11.0 0.00 6.34 0.03 55 1012.7
20260507125716 66 336 6.0 11.0 0.00 6.46 0.03 54 1012.7
20260507125152 66 241 6.0 11.0 0.00 6.46 0.03 53 1012.7
20260507124650 65 204 4.0 11.0 0.00 6.46 0.03 56 1012.7
20260507124226 65 287 2.0 9.0 0.00 6.46 0.03 55 1012.8
20260507123721 66 271 6.0 9.0 0.00 6.46 0.03 56 1012.8
20260507123151 65 279 4.0 11.0 0.00 6.46 0.03 57 1012.8
20260507122649 65 234 7.0 11.0 0.00 6.46 0.03 54 1012.8
20260507122152 65 264 4.0 8.0 0.00 6.46 0.03 59 1012.7
20260507121708 65 211 5.0 8.0 0.00 6.46 0.03 61 1012.8
20260507121206 65 205 5.0 8.0 0.00 6.46 0.03 57 1012.9
20260507120659 65 265 1.0 8.0 0.00 6.46 0.03 60 1012.9
20260507120149 64 276 4.0 9.0 0.00 6.46 0.03 62 1012.9
20260507115701 64 264 4.0 8.0 0.00 7.52 0.03 60 1012.9
20260507115202 64 286 4.0 11.0 0.00 7.52 0.03 62 1013.0
20260507114719 64 257 3.0 8.0 0.00 7.52 0.03 62 1013.0
20260507114156 65 238 4.0 9.0 0.00 7.52 0.03 60 1013.1
20260507113656 64 292 5.0 9.0 0.00 7.52 0.03 58 1013.1
20260507113200 64 244 3.0 7.0 0.00 7.52 0.03 60 1013.1
20260507112701 64 243 3.0 9.0 0.00 7.52 0.03 58 1013.2
20260507112202 64 252 6.0 9.0 0.00 7.52 0.03 60 1013.2
20260507111725 64 348 2.0 6.0 0.00 7.52 0.03 61 1013.3
20260507111203 64 254 2.0 9.0 0.00 7.52 0.03 63 1013.3
20260507110700 63 222 4.0 9.0 0.00 7.52 0.03 62 1013.3
20260507110204 63 269 4.0 6.0 0.00 7.52 0.03 64 1013.4
20260507105700 62 333 3.0 7.0 0.00 7.52 0.03 62 1013.5
20260507105223 63 336 3.0 9.0 0.00 7.52 0.03 66 1013.5
20260507104659 62 287 5.0 8.0 0.00 7.52 0.03 64 1013.5
20260507104155 63 308 4.0 8.0 0.00 7.52 0.03 63 1013.5
20260507103651 63 289 4.0 8.0 0.00 7.52 0.03 65 1013.5
20260507103222 63 267 3.0 7.0 0.00 7.52 0.03 66 1013.5
20260507102659 63 272 2.0 7.0 0.00 7.52 0.03 65 1013.6
20260507102155 63 282 2.0 7.0 0.00 7.52 0.03 65 1013.5
20260507101704 62 297 3.0 7.0 0.00 7.52 0.03 67 1013.5
20260507101202 62 297 3.0 8.0 0.00 7.52 0.03 66 1013.7
20260507100659 61 254 4.0 8.0 0.00 7.52 0.03 63 1013.7
20260507100146 62 308 2.0 5.0 0.00 7.52 0.03 66 1013.7
20260507095651 62 247 2.0 6.0 0.00 8.03 0.03 64 1013.7
20260507095158 61 195 4.0 6.0 0.00 8.03 0.03 64 1013.7
20260507094656 62 245 2.0 5.0 0.00 8.03 0.03 62 1013.7
20260507094203 61 252 3.0 8.0 0.00 8.03 0.03 63 1013.7
20260507093720 61 323 4.0 8.0 0.00 8.03 0.03 63 1013.7
20260507093209 60 282 3.0 6.0 0.00 8.03 0.03 64 1013.7
20260507092705 60 240 3.0 7.0 0.00 8.03 0.03 64 1013.7
20260507092222 60 272 4.0 7.0 0.00 8.03 0.03 65 1013.7
20260507091657 60 281 2.0 6.0 0.00 8.03 0.03 66 1013.6
20260507091157 60 161 2.0 5.0 0.00 8.03 0.03 63 1013.6
20260507090653 60 150 3.0 5.0 0.00 8.03 0.03 64 1013.6
20260507090157 59 154 3.0 6.0 0.00 8.03 0.03 66 1013.6
20260507085653 60 150 3.0 6.0 0.00 8.50 0.03 66 1013.6
20260507085149 60 174 3.0 5.0 0.00 8.50 0.03 65 1013.7
20260507084706 58 197 2.0 4.0 0.00 8.50 0.03 69 1013.6
20260507084200 58 197 2.0 4.0 0.00 8.50 0.03 71 1013.6
20260507083650 58 197 2.0 4.0 0.00 8.50 0.03 71 1013.5
20260507083201 59 197 2.0 7.0 0.00 8.50 0.03 70 1013.5
20260507082659 59 199 4.0 7.0 0.00 8.50 0.03 68 1013.5
20260507082155 61 159 3.0 5.0 0.00 8.50 0.03 67 1013.5
20260507081656 59 202 3.0 5.0 0.00 8.50 0.03 67 1013.4
20260507081150 59 200 3.0 7.0 0.00 8.50 0.03 68 1013.4
20260507080646 59 209 4.0 7.0 0.00 8.50 0.03 68 1013.4
20260507080153 59 183 2.0 5.0 0.00 8.50 0.03 67 1013.3
20260507075700 59 181 3.0 5.0 0.00 8.74 0.03 66 1013.3
20260507075204 59 161 3.0 5.0 0.00 8.74 0.03 67 1013.2
20260507074719 59 154 2.0 5.0 0.00 8.74 0.03 67 1013.2
20260507074200 59 134 3.0 4.0 0.00 8.74 0.03 68 1013.2
20260507073657 59 122 2.0 4.0 0.00 8.74 0.03 68 1013.2
20260507073212 59 119 1.0 4.0 0.00 8.74 0.03 69 1013.1
20260507072650 58 119 2.0 5.0 0.00 8.74 0.03 70 1013.1
20260507072158 58 117 2.0 5.0 0.00 8.74 0.03 71 1013.1
20260507071652 57 88 2.0 7.0 0.00 8.74 0.03 69 1013.1
20260507071208 57 86 2.0 7.0 0.00 8.74 0.03 70 1013.1
20260507070702 58 71 1.0 3.0 0.00 8.74 0.03 69 1013.1
20260507070149 57 69 1.0 4.0 0.00 8.74 0.03 72 1013.0
20260507065724 57 67 3.0 11.0 0.00 8.74 0.03 71 1013.0
20260507065201 56 344 4.0 14.0 0.00 8.74 0.03 67 1012.9
20260507064656 55 340 8.0 18.0 0.00 8.74 0.03 67 1012.9
20260507064158 55 327 12.0 19.0 0.00 8.74 0.03 69 1012.9
20260507063709 55 340 11.0 19.0 0.00 8.74 0.03 69 1012.8
20260507063205 54 340 8.0 19.0 0.00 8.74 0.03 71 1012.7
20260507062701 53 304 11.0 19.0 0.00 8.74 0.03 72 1012.7
20260507062152 53 360 8.0 15.0 0.00 8.74 0.03 75 1012.6
20260507061647 51 13 6.0 11.0 0.00 8.74 0.03 81 1012.6
20260507061158 51 157 2.0 3.0 0.00 8.74 0.03 82 1012.5
20260507060716 52 157 1.0 3.0 0.00 8.74 0.03 81 1012.6
20260507060202 52 173 2.0 9.0 0.00 8.74 0.03 79 1012.6
20260507055655 53 173 5.0 10.0 0.00 8.90 0.03 76 1012.6
20260507055209 53 15 5.0 10.0 0.00 8.90 0.03 74 1012.5
20260507054700 53 16 3.0 12.0 0.00 8.90 0.03 73 1012.5
20260507054158 53 336 5.0 12.0 0.00 8.90 0.03 74 1012.5
20260507053652 53 311 3.0 7.0 0.00 8.90 0.03 78 1012.4
20260507053153 53 202 4.0 7.0 0.00 8.90 0.03 76 1012.3
20260507052702 54 243 2.0 5.0 0.00 8.90 0.03 74 1012.2
20260507052156 54 134 2.0 4.0 0.00 8.90 0.03 74 1012.3
20260507051653 54 138 2.0 4.0 0.00 8.90 0.03 73 1012.2
20260507051146 54 169 2.0 4.0 0.00 8.90 0.03 72 1012.1
20260507050700 54 173 2.0 6.0 0.00 8.90 0.03 70 1012.0
20260507050159 54 180 3.0 6.0 0.00 8.90 0.03 68 1011.9
20260507045654 54 325 3.0 14.0 0.00 9.13 0.03 68 1011.9
20260507045207 55 5 7.0 14.0 0.00 9.13 0.03 67 1011.8
20260507044704 55 360 5.0 14.0 0.00 9.13 0.03 66 1011.7
20260507044154 55 56 6.0 14.0 0.00 9.13 0.03 65 1011.6
20260507043711 55 22 10.0 14.0 0.00 9.13 0.03 65 1011.5
20260507043154 55 63 8.0 17.0 0.00 9.13 0.03 64 1011.4
20260507042710 55 11 9.0 17.0 0.00 9.13 0.03 64 1011.5
20260507042205 55 34 8.0 15.0 0.00 9.13 0.03 65 1011.4
20260507041702 55 55 10.0 15.0 0.00 9.13 0.03 66 1011.5
20260507041152 55 23 6.0 20.0 0.00 9.13 0.03 66 1011.4
20260507040649 55 54 8.0 15.0 0.00 9.13 0.03 65 1011.4
20260507040216 55 29 7.0 16.0 0.00 9.13 0.03 66 1011.4
20260507035702 55 71 9.0 16.0 0.00 9.13 0.03 66 1011.4
20260507035155 54 32 11.0 17.0 0.00 9.13 0.03 67 1011.5
20260507034653 54 64 9.0 15.0 0.00 9.13 0.03 69 1011.4
20260507034150 54 39 6.0 15.0 0.00 9.13 0.03 69 1011.6
20260507033649 53 322 7.0 15.0 0.00 9.13 0.03 71 1011.7
20260507033154 53 42 7.0 13.0 0.00 9.13 0.03 72 1011.8
20260507032707 53 47 7.0 12.0 0.00 9.13 0.03 72 1011.7
20260507032202 53 350 5.0 15.0 0.00 9.13 0.03 73 1011.7
20260507031700 53 319 9.0 15.0 0.00 9.13 0.03 74 1011.8
20260507031200 53 319 6.0 15.0 0.00 9.13 0.03 74 1011.8
20260507030657 52 25 7.0 18.0 0.00 9.13 0.03 75 1011.8
20260507030159 53 336 11.0 18.0 0.00 9.13 0.03 73 1011.8
20260507025658 53 13 6.0 17.0 0.00 9.13 0.03 74 1011.7
20260507025151 52 360 10.0 16.0 0.00 9.13 0.03 76 1011.8
20260507024707 52 17 7.0 15.0 0.00 9.13 0.03 76 1011.7
20260507024203 53 46 7.0 16.0 0.00 9.13 0.03 74 1011.7
20260507023650 54 329 9.0 15.0 0.00 9.13 0.03 71 1011.8
20260507023200 53 355 10.0 17.0 0.00 9.13 0.03 73 1011.7
20260507022715 52 71 7.0 17.0 0.00 9.13 0.03 76 1011.7
20260507022216 52 347 5.0 15.0 0.00 9.13 0.03 78 1011.7
20260507021649 51 350 5.0 16.0 0.00 9.13 0.03 80 1011.8
20260507021225 51 302 9.0 17.0 0.00 9.13 0.03 81 1011.9
20260507020646 51 326 11.0 21.0 0.04 9.13 0.03 82 1011.8
20260507020154 51 355 11.0 23.0 0.04 9.13 0.03 82 1012.0
20260507015653 52 355 9.0 22.0 0.04 9.21 0.03 80 1012.0
20260507015147 52 355 11.0 22.0 0.04 9.21 0.03 79 1011.9
20260507014702 52 5 12.0 18.0 0.04 9.21 0.03 77 1011.7
20260507014202 52 5 10.0 22.0 0.08 9.21 0.03 77 1011.4
20260507013654 52 5 14.0 22.0 0.08 9.21 0.03 77 1011.5
20260507013204 53 9 12.0 19.0 0.08 9.21 0.03 77 1011.4
20260507012703 52 18 10.0 22.0 0.08 9.21 0.03 77 1011.2
20260507012154 53 25 6.0 22.0 0.08 9.21 0.03 77 1011.0
20260507011652 53 25 8.0 16.0 0.12 9.21 0.03 76 1011.0
20260507010706 53 67 7.0 13.0 0.08 9.17 0.02 77 1011.0
20260507010203 53 39 8.0 13.0 0.08 9.17 0.02 77 1011.0
20260507005701 53 32 5.0 11.0 0.08 9.29 0.02 76 1011.0
20260507005159 53 9 6.0 17.0 0.08 9.29 0.02 76 1011.0
20260507004657 53 351 8.0 17.0 0.08 9.29 0.02 75 1011.2
20260507004156 52 355 10.0 25.0 0.04 9.25 0.01 77 1011.2
20260507003653 52 360 13.0 27.0 0.04 9.25 0.01 80 1011.3
20260507003159 51 13 16.0 27.0 0.04 9.25 0.01 81 1011.5
20260507002657 52 12 13.0 26.0 0.04 9.25 0.01 78 1011.5
20260507002202 53 355 9.0 18.0 0.04 9.25 0.01 74 1011.4
20260507001701 53 355 10.0 22.0 0.00 9.21 0.00 74 1011.4
20260507001156 54 334 13.0 22.0 0.00 9.21 0.00 72 1011.4
20260507000712 54 360 9.0 16.0 0.00 9.21 0.00 72 1011.3
20260507000157 53 360 7.0 17.0 0.00 9.21 0.00 73 1011.3
20260506235654 53 341 8.0 17.0 0.00 9.37 0.00 74 1011.4
20260506235213 52 327 10.0 19.0 0.00 9.37 0.00 77 1011.5
20260506234727 52 11 10.0 21.0 0.00 9.37 0.00 80 1011.6
20260506234156 51 331 11.0 21.0 0.00 9.37 0.00 81 1011.7
20260506233651 51 15 11.0 24.0 0.00 9.37 0.00 82 1011.6
20260506233204 52 18 15.0 29.0 0.00 9.37 0.00 81 1011.7
20260506232703 53 322 15.0 29.0 0.00 9.37 0.00 76 1011.4
20260506232223 54 15 11.0 18.0 0.00 9.37 0.00 73 1011.2
20260506231712 54 339 11.0 18.0 0.00 9.37 0.00 72 1011.1
20260506231215 54 355 11.0 18.0 0.00 9.37 0.00 72 1011.1
20260506230652 54 32 11.0 21.0 0.00 9.37 0.00 72 1011.1
20260506230157 53 344 14.0 21.0 0.00 9.37 0.00 75 1011.2
20260506225657 53 21 11.0 21.0 0.00 9.72 0.00 74 1011.2
20260506225153 53 9 10.0 22.0 0.00 9.72 0.00 74 1011.1
20260506224654 53 331 11.0 22.0 0.00 9.72 0.00 77 1011.0
20260506224213 53 12 11.0 22.0 0.00 9.72 0.00 77 1011.0
20260506223649 53 5 13.0 22.0 0.00 9.72 0.00 77 1011.1
20260506223154 53 5 13.0 19.0 0.00 9.72 0.00 76 1011.2
20260506222649 54 31 13.0 19.0 0.00 9.72 0.00 76 1011.1
20260506222153 54 333 12.0 19.0 0.00 9.72 0.00 77 1011.0
20260506221704 54 348 12.0 19.0 0.00 9.72 0.00 76 1011.0
20260506221207 54 9 13.0 24.0 0.00 9.72 0.00 77 1010.8
20260506220659 54 355 13.0 24.0 0.00 9.72 0.00 75 1010.9
20260506220219 55 355 13.0 20.0 0.00 9.72 0.00 73 1011.0
20260506215654 55 338 11.0 21.0 0.00 1.04 2.47 72 1010.9
20260506215229 55 10 11.0 21.0 0.04 1.04 2.47 73 1010.8
20260506214655 55 355 12.0 18.0 0.04 1.04 2.47 72 1010.8
20260506214201 54 350 7.0 11.0 0.04 1.04 2.47 75 1010.8
20260506213700 54 23 0.0 7.0 0.04 1.04 2.47 77 1010.7
20260506213149 55 81 2.0 10.0 0.04 1.04 2.47 75 1010.7
20260506212648 55 5 5.0 14.0 0.04 1.04 2.47 72 1010.7
20260506212207 55 46 5.0 22.0 0.04 1.04 2.47 73 1010.6
20260506211658 54 15 9.0 23.0 0.04 1.04 2.47 73 1010.6
20260506211201 54 15 14.0 20.0 0.04 1.04 2.47 73 1010.6
20260506210655 55 327 12.0 20.0 0.04 1.04 2.47 74 1010.6
20260506210201 54 333 9.0 25.0 0.04 1.04 2.47 75 1010.5
20260506205652 54 5 9.0 16.0 0.04 1.04 2.47 75 1010.6
20260506205205 54 5 10.0 16.0 0.04 1.03 2.46 76 1010.7
20260506204659 54 338 7.0 18.0 0.04 1.03 2.46 78 1010.6
20260506204201 54 5 9.0 18.0 0.04 1.03 2.46 77 1010.6
20260506203702 54 26 9.0 16.0 0.04 1.03 2.46 77 1010.6